Data supplied by UK-AIR on 3/5/2024
All Data GMT hour ending 
Status: R =Ratified P=Provisional,P*=As supplied
,,Yarner Wood,,,,,,,,,,,,,,,,,,,,,,,
Date,time,"PM<sub>10</sub> particulate matter (Hourly measured)",status,unit,"Nitric oxide",status,unit,"Nitrogen dioxide",status,unit,"Nitrogen oxides as nitrogen dioxide",status,unit,"Ozone",status,unit,"PM<sub>2.5</sub> particulate matter (Hourly measured)",status,unit
 
01-01-2024,01:00,14.800,P,ugm-3 (FIDAS),,,,,,,,,,76.10269,P,ugm-3,7.830,P,ugm-3 (Ref.eq)
01-01-2024,02:00,17.325,P,ugm-3 (FIDAS),,,,,,,,,,75.17137,P,ugm-3,8.443,P,ugm-3 (Ref.eq)
01-01-2024,03:00,15.400,P,ugm-3 (FIDAS),,,,,,,,,,76.13596,P,ugm-3,7.759,P,ugm-3 (Ref.eq)
01-01-2024,04:00,12.750,P,ugm-3 (FIDAS),,,,,,,,,,75.03832,P,ugm-3,6.344,P,ugm-3 (Ref.eq)
01-01-2024,05:00,6.825,P,ugm-3 (FIDAS),,,,,,,,,,78.43101,P,ugm-3,3.373,P,ugm-3 (Ref.eq)
01-01-2024,06:00,10.500,P,ugm-3 (FIDAS),,,,,,,,,,72.69337,P,ugm-3,4.882,P,ugm-3 (Ref.eq)
01-01-2024,07:00,12.275,P,ugm-3 (FIDAS),,,,,,,,,,69.99918,P,ugm-3,5.920,P,ugm-3 (Ref.eq)
01-01-2024,08:00,8.825,P,ugm-3 (FIDAS),,,,,,,,,,71.24649,P,ugm-3,4.363,P,ugm-3 (Ref.eq)
01-01-2024,09:00,7.575,P,ugm-3 (FIDAS),,,,,,,,,,70.14886,P,ugm-3,3.892,P,ugm-3 (Ref.eq)
01-01-2024,10:00,14.125,P,ugm-3 (FIDAS),,,,,,,,,,69.40047,P,ugm-3,5.755,P,ugm-3 (Ref.eq)
01-01-2024,11:00,13.125,P,ugm-3 (FIDAS),,,,,,,,,,60.86885,P,ugm-3,5.920,P,ugm-3 (Ref.eq)
01-01-2024,12:00,13.425,P,ugm-3 (FIDAS),,,,,,,,,,57.02713,P,ugm-3,6.392,P,ugm-3 (Ref.eq)
01-01-2024,13:00,7.400,P,ugm-3 (FIDAS),,,,,,,,,,73.59144,P,ugm-3,4.088,P,ugm-3 (Ref.eq)
01-01-2024,14:00,4.050,P,ugm-3 (FIDAS),,,,,,,,,,76.83445,P,ugm-3,2.500,P,ugm-3 (Ref.eq)
01-01-2024,15:00,2.150,P,ugm-3 (FIDAS),,,,,,,,,,78.63058,P,ugm-3,1.439,P,ugm-3 (Ref.eq)
01-01-2024,16:00,2.325,P,ugm-3 (FIDAS),,,,,,,,,,80.67617,P,ugm-3,1.651,P,ugm-3 (Ref.eq)
01-01-2024,17:00,2.700,P,ugm-3 (FIDAS),,,,,,,,,,83.27058,P,ugm-3,1.745,P,ugm-3 (Ref.eq)
01-01-2024,18:00,1.450,P,ugm-3 (FIDAS),,,,,,,,,,84.06886,P,ugm-3,0.991,P,ugm-3 (Ref.eq)
01-01-2024,19:00,1.725,P,ugm-3 (FIDAS),,,,,,,,,,89.00822,P,ugm-3,1.038,P,ugm-3 (Ref.eq)
01-01-2024,20:00,1.250,P,ugm-3 (FIDAS),,,,,,,,,,89.55704,P,ugm-3,0.731,P,ugm-3 (Ref.eq)
01-01-2024,21:00,0.625,P,ugm-3 (FIDAS),,,,,,,,,,89.10801,P,ugm-3,0.401,P,ugm-3 (Ref.eq)
01-01-2024,22:00,0.550,P,ugm-3 (FIDAS),,,,,,,,,,88.01037,P,ugm-3,0.259,P,ugm-3 (Ref.eq)
01-01-2024,23:00,1.275,P,ugm-3 (FIDAS),,,,,,,,,,85.66542,P,ugm-3,0.708,P,ugm-3 (Ref.eq)
01-01-2024,24:00,7.925,P,ugm-3 (FIDAS),,,,,,,,,,86.76306,P,ugm-3,4.741,P,ugm-3 (Ref.eq)
02-01-2024,01:00,12.550,P,ugm-3 (FIDAS),,,,,,,,,,88.01037,P,ugm-3,7.594,P,ugm-3 (Ref.eq)
02-01-2024,02:00,15.900,P,ugm-3 (FIDAS),,,,,,,,,,85.68205,P,ugm-3,9.198,P,ugm-3 (Ref.eq)
02-01-2024,03:00,13.200,P,ugm-3 (FIDAS),,,,,,,,,,83.27058,P,ugm-3,7.830,P,ugm-3 (Ref.eq)
02-01-2024,04:00,8.900,P,ugm-3 (FIDAS),,,,,,,,,,83.22069,P,ugm-3,5.495,P,ugm-3 (Ref.eq)
02-01-2024,05:00,4.325,P,ugm-3 (FIDAS),,,,,,,,,,83.52005,P,ugm-3,2.736,P,ugm-3 (Ref.eq)
02-01-2024,06:00,3.325,P,ugm-3 (FIDAS),,,,,,,,,,73.24219,P,ugm-3,1.981,P,ugm-3 (Ref.eq)
02-01-2024,07:00,0.825,P,ugm-3 (FIDAS),,,,,,,,,,69.60004,P,ugm-3,0.590,P,ugm-3 (Ref.eq)
02-01-2024,08:00,0.925,P,ugm-3 (FIDAS),,,,,,,,,,82.37252,P,ugm-3,0.613,P,ugm-3 (Ref.eq)
02-01-2024,09:00,0.975,P,ugm-3 (FIDAS),,,,,,,,,,87.01252,P,ugm-3,0.731,P,ugm-3 (Ref.eq)
02-01-2024,10:00,0.625,P,ugm-3 (FIDAS),,,,,,,,,,85.06671,P,ugm-3,0.377,P,ugm-3 (Ref.eq)
02-01-2024,11:00,3.375,P,ugm-3 (FIDAS),0.79940,P,ugm-3,0.93101,P,ugm-3,2.15674,P,ugm-3,85.56564,P,ugm-3,2.123,P,ugm-3 (Ref.eq)
02-01-2024,12:00,5.400,P,ugm-3 (FIDAS),0.83015,P,ugm-3,0.74321,P,ugm-3,2.01608,P,ugm-3,87.01252,P,ugm-3,3.561,P,ugm-3 (Ref.eq)
02-01-2024,13:00,,,,,,,,,,,,,,,,,,
02-01-2024,14:00,,,,,,,,,,,,,,,,,,
02-01-2024,15:00,,,,,,,,,,,,,,,,,,
02-01-2024,16:00,8.600,P,ugm-3 (FIDAS),0.24597,P,ugm-3,0.31051,P,ugm-3,0.68766,P,ugm-3,83.32048,P,ugm-3,4.788,P,ugm-3 (Ref.eq)
02-01-2024,17:00,10.925,P,ugm-3 (FIDAS),0.21522,P,ugm-3,0.37328,P,ugm-3,0.70328,P,ugm-3,82.12306,P,ugm-3,6.415,P,ugm-3 (Ref.eq)
02-01-2024,18:00,11.775,P,ugm-3 (FIDAS),0.36895,P,ugm-3,0.41888,P,ugm-3,0.98460,P,ugm-3,81.02542,P,ugm-3,6.887,P,ugm-3 (Ref.eq)
02-01-2024,19:00,13.075,P,ugm-3 (FIDAS),0.49194,P,ugm-3,0.60539,P,ugm-3,1.35968,P,ugm-3,79.27918,P,ugm-3,7.783,P,ugm-3 (Ref.eq)
02-01-2024,20:00,13.100,P,ugm-3 (FIDAS),0.36895,P,ugm-3,0.55953,P,ugm-3,1.12525,P,ugm-3,78.97983,P,ugm-3,7.547,P,ugm-3 (Ref.eq)
02-01-2024,21:00,12.150,P,ugm-3 (FIDAS),0.46119,P,ugm-3,0.46499,P,ugm-3,1.17214,P,ugm-3,79.92779,P,ugm-3,7.099,P,ugm-3 (Ref.eq)
02-01-2024,22:00,15.525,P,ugm-3 (FIDAS),0.52268,P,ugm-3,0.55825,P,ugm-3,1.35968,P,ugm-3,82.37252,P,ugm-3,8.797,P,ugm-3 (Ref.eq)
02-01-2024,23:00,16.300,P,ugm-3 (FIDAS),0.64567,P,ugm-3,0.46344,P,ugm-3,1.45345,P,ugm-3,84.36822,P,ugm-3,9.363,P,ugm-3 (Ref.eq)
02-01-2024,24:00,10.800,P,ugm-3 (FIDAS),0.58418,P,ugm-3,0.37019,P,ugm-3,1.26591,P,ugm-3,84.71747,P,ugm-3,6.156,P,ugm-3 (Ref.eq)
03-01-2024,01:00,7.275,P,ugm-3 (FIDAS),-0.08208,P,ugm-3,1.37751,P,ugm-3,1.25166,P,ugm-3,84.01897,P,ugm-3,4.410,P,ugm-3 (Ref.eq)
03-01-2024,02:00,9.400,P,ugm-3 (FIDAS),0.20520,P,ugm-3,1.24995,P,ugm-3,1.56458,P,ugm-3,82.28936,P,ugm-3,4.976,P,ugm-3 (Ref.eq)
03-01-2024,03:00,12.025,P,ugm-3 (FIDAS),0.06156,P,ugm-3,1.40760,P,ugm-3,1.50199,P,ugm-3,82.02327,P,ugm-3,6.651,P,ugm-3 (Ref.eq)
03-01-2024,04:00,13.525,P,ugm-3 (FIDAS),0.15390,P,ugm-3,1.31296,P,ugm-3,1.54893,P,ugm-3,79.82800,P,ugm-3,7.925,P,ugm-3 (Ref.eq)
03-01-2024,05:00,15.200,P,ugm-3 (FIDAS),0.09234,P,ugm-3,1.21960,P,ugm-3,1.36118,P,ugm-3,79.52865,P,ugm-3,8.679,P,ugm-3 (Ref.eq)
03-01-2024,06:00,13.575,P,ugm-3 (FIDAS),0.09234,P,ugm-3,1.21960,P,ugm-3,1.36118,P,ugm-3,80.22714,P,ugm-3,7.642,P,ugm-3 (Ref.eq)
03-01-2024,07:00,12.300,P,ugm-3 (FIDAS),0.00000,P,ugm-3,1.31425,P,ugm-3,1.31425,P,ugm-3,80.07746,P,ugm-3,7.123,P,ugm-3 (Ref.eq)
03-01-2024,08:00,12.175,P,ugm-3 (FIDAS),0.03078,P,ugm-3,1.36093,P,ugm-3,1.40812,P,ugm-3,79.72822,P,ugm-3,6.816,P,ugm-3 (Ref.eq)
03-01-2024,09:00,5.525,P,ugm-3 (FIDAS),-0.03078,P,ugm-3,1.36144,P,ugm-3,1.31425,P,ugm-3,80.92564,P,ugm-3,3.774,P,ugm-3 (Ref.eq)
03-01-2024,10:00,8.625,P,ugm-3 (FIDAS),-0.12312,P,ugm-3,1.78465,P,ugm-3,1.59587,P,ugm-3,78.63058,P,ugm-3,5.330,P,ugm-3 (Ref.eq)
03-01-2024,11:00,8.550,P,ugm-3 (FIDAS),0.24624,P,ugm-3,1.59381,P,ugm-3,1.97137,P,ugm-3,78.68047,P,ugm-3,4.741,P,ugm-3 (Ref.eq)
03-01-2024,12:00,8.450,P,ugm-3 (FIDAS),0.21546,P,ugm-3,1.45326,P,ugm-3,1.78362,P,ugm-3,80.27703,P,ugm-3,4.835,P,ugm-3 (Ref.eq)
03-01-2024,13:00,4.375,P,ugm-3 (FIDAS),0.15390,P,ugm-3,1.50071,P,ugm-3,1.73668,P,ugm-3,78.97983,P,ugm-3,3.184,P,ugm-3 (Ref.eq)
03-01-2024,14:00,4.375,P,ugm-3 (FIDAS),0.15390,P,ugm-3,1.50071,P,ugm-3,1.73668,P,ugm-3,76.13596,P,ugm-3,2.995,P,ugm-3 (Ref.eq)
03-01-2024,15:00,5.300,P,ugm-3 (FIDAS),0.15390,P,ugm-3,1.21908,P,ugm-3,1.45506,P,ugm-3,75.98628,P,ugm-3,3.373,P,ugm-3 (Ref.eq)
03-01-2024,16:00,5.475,P,ugm-3 (FIDAS),0.15390,P,ugm-3,1.35990,P,ugm-3,1.59587,P,ugm-3,75.98628,P,ugm-3,3.585,P,ugm-3 (Ref.eq)
03-01-2024,17:00,6.500,P,ugm-3 (FIDAS),0.18468,P,ugm-3,1.40658,P,ugm-3,1.68974,P,ugm-3,78.23144,P,ugm-3,4.080,P,ugm-3 (Ref.eq)
03-01-2024,18:00,8.625,P,ugm-3 (FIDAS),0.15390,P,ugm-3,1.35990,P,ugm-3,1.59587,P,ugm-3,77.43316,P,ugm-3,5.896,P,ugm-3 (Ref.eq)
03-01-2024,19:00,8.900,P,ugm-3 (FIDAS),0.15390,P,ugm-3,1.40683,P,ugm-3,1.64281,P,ugm-3,77.38327,P,ugm-3,5.613,P,ugm-3 (Ref.eq)
03-01-2024,20:00,8.550,P,ugm-3 (FIDAS),0.27702,P,ugm-3,1.35887,P,ugm-3,1.78362,P,ugm-3,78.38112,P,ugm-3,4.788,P,ugm-3 (Ref.eq)
03-01-2024,21:00,16.400,P,ugm-3 (FIDAS),0.12312,P,ugm-3,1.40709,P,ugm-3,1.59587,P,ugm-3,78.58069,P,ugm-3,8.585,P,ugm-3 (Ref.eq)
03-01-2024,22:00,15.925,P,ugm-3 (FIDAS),0.18468,P,ugm-3,1.21883,P,ugm-3,1.50199,P,ugm-3,78.78026,P,ugm-3,8.208,P,ugm-3 (Ref.eq)
03-01-2024,23:00,15.775,P,ugm-3 (FIDAS),0.24624,P,ugm-3,1.17137,P,ugm-3,1.54893,P,ugm-3,79.22929,P,ugm-3,7.642,P,ugm-3 (Ref.eq)
03-01-2024,24:00,12.025,P,ugm-3 (FIDAS),0.21546,P,ugm-3,1.17163,P,ugm-3,1.50199,P,ugm-3,78.08176,P,ugm-3,6.344,P,ugm-3 (Ref.eq)
04-01-2024,01:00,10.100,P,ugm-3 (FIDAS),0.16434,P,ugm-3,1.18902,P,ugm-3,1.44100,P,ugm-3,80.82585,P,ugm-3,5.259,P,ugm-3 (Ref.eq)
04-01-2024,02:00,13.900,P,ugm-3 (FIDAS),,,,,,,,,,73.70785,P,ugm-3,6.722,P,ugm-3 (Ref.eq)
04-01-2024,03:00,13.925,P,ugm-3 (FIDAS),0.27732,P,ugm-3,1.17241,P,ugm-3,1.59763,P,ugm-3,71.64563,P,ugm-3,6.462,P,ugm-3 (Ref.eq)
04-01-2024,04:00,12.925,P,ugm-3 (FIDAS),0.24651,P,ugm-3,1.12568,P,ugm-3,1.50365,P,ugm-3,73.14241,P,ugm-3,5.967,P,ugm-3 (Ref.eq)
04-01-2024,05:00,12.375,P,ugm-3 (FIDAS),0.21569,P,ugm-3,1.36088,P,ugm-3,1.69161,P,ugm-3,73.79101,P,ugm-3,5.401,P,ugm-3 (Ref.eq)
04-01-2024,06:00,11.675,P,ugm-3 (FIDAS),0.30813,P,ugm-3,1.36011,P,ugm-3,1.83257,P,ugm-3,63.51315,P,ugm-3,5.259,P,ugm-3 (Ref.eq)
04-01-2024,07:00,10.200,P,ugm-3 (FIDAS),0.18488,P,ugm-3,1.26716,P,ugm-3,1.55064,P,ugm-3,53.53465,P,ugm-3,4.481,P,ugm-3 (Ref.eq)
04-01-2024,08:00,10.175,P,ugm-3 (FIDAS),0.33895,P,ugm-3,1.50082,P,ugm-3,2.02053,P,ugm-3,53.48476,P,ugm-3,4.575,P,ugm-3 (Ref.eq)
04-01-2024,09:00,11.475,P,ugm-3 (FIDAS),,,,,,,,,,51.53895,P,ugm-3,4.835,P,ugm-3 (Ref.eq)
04-01-2024,10:00,10.275,P,ugm-3 (FIDAS),,,,,,,,,,38.61680,P,ugm-3,4.269,P,ugm-3 (Ref.eq)
04-01-2024,11:00,8.875,P,ugm-3 (FIDAS),,,,,,,,,,38.01809,P,ugm-3,4.151,P,ugm-3 (Ref.eq)
04-01-2024,12:00,8.350,P,ugm-3 (FIDAS),,,,,,,,,,49.79272,P,ugm-3,4.434,P,ugm-3 (Ref.eq)
04-01-2024,13:00,3.700,P,ugm-3 (FIDAS),0.46220,P,ugm-3,6.38665,P,ugm-3,7.09535,P,ugm-3,66.85595,P,ugm-3,2.594,P,ugm-3 (Ref.eq)
04-01-2024,14:00,3.350,P,ugm-3 (FIDAS),0.33895,P,ugm-3,11.03960,P,ugm-3,11.55931,P,ugm-3,65.10971,P,ugm-3,2.712,P,ugm-3 (Ref.eq)
04-01-2024,15:00,2.025,P,ugm-3 (FIDAS),0.27732,P,ugm-3,4.08573,P,ugm-3,4.51095,P,ugm-3,76.98413,P,ugm-3,1.533,P,ugm-3 (Ref.eq)
04-01-2024,16:00,1.700,P,ugm-3 (FIDAS),0.18488,P,ugm-3,4.32145,P,ugm-3,4.60493,P,ugm-3,77.68262,P,ugm-3,1.250,P,ugm-3 (Ref.eq)
04-01-2024,17:00,1.625,P,ugm-3 (FIDAS),0.24651,P,ugm-3,2.30041,P,ugm-3,2.67838,P,ugm-3,80.92564,P,ugm-3,1.179,P,ugm-3 (Ref.eq)
04-01-2024,18:00,1.575,P,ugm-3 (FIDAS),0.30813,P,ugm-3,1.97097,P,ugm-3,2.44343,P,ugm-3,79.12951,P,ugm-3,1.038,P,ugm-3 (Ref.eq)
04-01-2024,19:00,3.350,P,ugm-3 (FIDAS),0.33895,P,ugm-3,2.86350,P,ugm-3,3.38321,P,ugm-3,73.59144,P,ugm-3,2.264,P,ugm-3 (Ref.eq)
04-01-2024,20:00,5.575,P,ugm-3 (FIDAS),0.21569,P,ugm-3,5.77785,P,ugm-3,6.10858,P,ugm-3,66.30713,P,ugm-3,3.915,P,ugm-3 (Ref.eq)
04-01-2024,21:00,7.300,P,ugm-3 (FIDAS),0.27732,P,ugm-3,4.69659,P,ugm-3,5.12181,P,ugm-3,68.30283,P,ugm-3,4.222,P,ugm-3 (Ref.eq)
04-01-2024,22:00,12.750,P,ugm-3 (FIDAS),0.27732,P,ugm-3,3.00499,P,ugm-3,3.43020,P,ugm-3,71.19660,P,ugm-3,5.731,P,ugm-3 (Ref.eq)
04-01-2024,23:00,9.050,P,ugm-3 (FIDAS),0.15407,P,ugm-3,2.11322,P,ugm-3,2.34945,P,ugm-3,71.29638,P,ugm-3,4.292,P,ugm-3 (Ref.eq)
04-01-2024,24:00,6.100,P,ugm-3 (FIDAS),0.36976,P,ugm-3,2.20540,P,ugm-3,2.77235,P,ugm-3,71.29638,P,ugm-3,3.042,P,ugm-3 (Ref.eq)
05-01-2024,01:00,7.100,P,ugm-3 (FIDAS),0.28790,P,ugm-3,1.75379,P,ugm-3,2.19524,P,ugm-3,67.72075,P,ugm-3,3.750,P,ugm-3 (Ref.eq)
05-01-2024,02:00,3.925,P,ugm-3 (FIDAS),,,,,,,,,,72.84305,P,ugm-3,2.099,P,ugm-3 (Ref.eq)
05-01-2024,03:00,3.450,P,ugm-3 (FIDAS),0.27762,P,ugm-3,1.40891,P,ugm-3,1.83459,P,ugm-3,66.40692,P,ugm-3,1.769,P,ugm-3 (Ref.eq)
05-01-2024,04:00,4.800,P,ugm-3 (FIDAS),0.27762,P,ugm-3,1.45595,P,ugm-3,1.88163,P,ugm-3,62.96434,P,ugm-3,2.264,P,ugm-3 (Ref.eq)
05-01-2024,05:00,5.400,P,ugm-3 (FIDAS),0.30847,P,ugm-3,1.54978,P,ugm-3,2.02275,P,ugm-3,60.32003,P,ugm-3,2.264,P,ugm-3 (Ref.eq)
05-01-2024,06:00,2.475,P,ugm-3 (FIDAS),0.37016,P,ugm-3,1.45518,P,ugm-3,2.02275,P,ugm-3,60.07057,P,ugm-3,1.274,P,ugm-3 (Ref.eq)
05-01-2024,07:00,1.225,P,ugm-3 (FIDAS),0.30847,P,ugm-3,1.31457,P,ugm-3,1.78755,P,ugm-3,58.17466,P,ugm-3,0.495,P,ugm-3 (Ref.eq)
05-01-2024,08:00,2.200,P,ugm-3 (FIDAS),0.24677,P,ugm-3,1.50325,P,ugm-3,1.88163,P,ugm-3,54.38283,P,ugm-3,0.991,P,ugm-3 (Ref.eq)
05-01-2024,09:00,2.425,P,ugm-3 (FIDAS),0.18508,P,ugm-3,2.06825,P,ugm-3,2.35204,P,ugm-3,50.69078,P,ugm-3,1.203,P,ugm-3 (Ref.eq)
05-01-2024,10:00,1.850,P,ugm-3 (FIDAS),0.43185,P,ugm-3,2.06620,P,ugm-3,2.72837,P,ugm-3,61.86670,P,ugm-3,1.038,P,ugm-3 (Ref.eq)
05-01-2024,11:00,3.475,P,ugm-3 (FIDAS),0.40101,P,ugm-3,2.34870,P,ugm-3,2.96357,P,ugm-3,63.76262,P,ugm-3,1.887,P,ugm-3 (Ref.eq)
05-01-2024,12:00,4.275,P,ugm-3 (FIDAS),0.58609,P,ugm-3,2.86461,P,ugm-3,3.76327,P,ugm-3,64.31143,P,ugm-3,2.123,P,ugm-3 (Ref.eq)
05-01-2024,13:00,4.750,P,ugm-3 (FIDAS),0.37016,P,ugm-3,2.63120,P,ugm-3,3.19878,P,ugm-3,61.31788,P,ugm-3,1.934,P,ugm-3 (Ref.eq)
05-01-2024,14:00,3.900,P,ugm-3 (FIDAS),0.40101,P,ugm-3,2.30166,P,ugm-3,2.91653,P,ugm-3,60.51960,P,ugm-3,1.816,P,ugm-3 (Ref.eq)
05-01-2024,15:00,3.550,P,ugm-3 (FIDAS),0.40101,P,ugm-3,2.25462,P,ugm-3,2.86949,P,ugm-3,58.72347,P,ugm-3,1.698,P,ugm-3 (Ref.eq)
05-01-2024,16:00,4.150,P,ugm-3 (FIDAS),0.40101,P,ugm-3,2.72503,P,ugm-3,3.33990,P,ugm-3,55.82971,P,ugm-3,2.170,P,ugm-3 (Ref.eq)
05-01-2024,17:00,4.800,P,ugm-3 (FIDAS),0.37016,P,ugm-3,3.19569,P,ugm-3,3.76327,P,ugm-3,54.18326,P,ugm-3,2.453,P,ugm-3 (Ref.eq)
05-01-2024,18:00,3.200,P,ugm-3 (FIDAS),0.24677,P,ugm-3,2.82039,P,ugm-3,3.19878,P,ugm-3,59.07272,P,ugm-3,1.887,P,ugm-3 (Ref.eq)
05-01-2024,19:00,3.825,P,ugm-3 (FIDAS),0.21593,P,ugm-3,2.82065,P,ugm-3,3.15173,P,ugm-3,58.12476,P,ugm-3,2.052,P,ugm-3 (Ref.eq)
05-01-2024,20:00,4.975,P,ugm-3 (FIDAS),0.40101,P,ugm-3,3.71289,P,ugm-3,4.32775,P,ugm-3,53.98369,P,ugm-3,2.759,P,ugm-3 (Ref.eq)
05-01-2024,21:00,6.600,P,ugm-3 (FIDAS),0.27762,P,ugm-3,3.05534,P,ugm-3,3.48102,P,ugm-3,55.63014,P,ugm-3,3.255,P,ugm-3 (Ref.eq)
05-01-2024,22:00,8.925,P,ugm-3 (FIDAS),0.18508,P,ugm-3,3.43244,P,ugm-3,3.71622,P,ugm-3,55.53035,P,ugm-3,4.552,P,ugm-3 (Ref.eq)
05-01-2024,23:00,10.000,P,ugm-3 (FIDAS),0.30847,P,ugm-3,3.29029,P,ugm-3,3.76327,P,ugm-3,57.42627,P,ugm-3,4.976,P,ugm-3 (Ref.eq)
05-01-2024,24:00,8.825,P,ugm-3 (FIDAS),0.33931,P,ugm-3,2.63146,P,ugm-3,3.15173,P,ugm-3,59.37208,P,ugm-3,4.340,P,ugm-3 (Ref.eq)
06-01-2024,01:00,6.950,P,ugm-3 (FIDAS),0.37056,P,ugm-3,2.57131,P,ugm-3,3.13950,P,ugm-3,56.61136,P,ugm-3,3.797,P,ugm-3 (Ref.eq)
06-01-2024,02:00,8.325,P,ugm-3 (FIDAS),,,,,,,,,,56.87745,P,ugm-3,3.962,P,ugm-3 (Ref.eq)
06-01-2024,03:00,9.050,P,ugm-3 (FIDAS),0.37056,P,ugm-3,2.35155,P,ugm-3,2.91974,P,ugm-3,57.22670,P,ugm-3,4.198,P,ugm-3 (Ref.eq)
06-01-2024,04:00,8.125,P,ugm-3 (FIDAS),0.24704,P,ugm-3,2.25839,P,ugm-3,2.63718,P,ugm-3,57.07702,P,ugm-3,3.774,P,ugm-3 (Ref.eq)
06-01-2024,05:00,8.000,P,ugm-3 (FIDAS),0.33968,P,ugm-3,2.11634,P,ugm-3,2.63718,P,ugm-3,58.52390,P,ugm-3,3.491,P,ugm-3 (Ref.eq)
06-01-2024,06:00,6.800,P,ugm-3 (FIDAS),0.40144,P,ugm-3,2.25711,P,ugm-3,2.87264,P,ugm-3,59.67143,P,ugm-3,3.373,P,ugm-3 (Ref.eq)
06-01-2024,07:00,6.925,P,ugm-3 (FIDAS),0.27792,P,ugm-3,2.35232,P,ugm-3,2.77846,P,ugm-3,58.37423,P,ugm-3,3.420,P,ugm-3 (Ref.eq)
06-01-2024,08:00,6.375,P,ugm-3 (FIDAS),0.27792,P,ugm-3,2.21104,P,ugm-3,2.63718,P,ugm-3,57.62584,P,ugm-3,3.255,P,ugm-3 (Ref.eq)
06-01-2024,09:00,5.550,P,ugm-3 (FIDAS),0.24704,P,ugm-3,2.54095,P,ugm-3,2.91974,P,ugm-3,59.82111,P,ugm-3,2.830,P,ugm-3 (Ref.eq)
06-01-2024,10:00,5.850,P,ugm-3 (FIDAS),0.24704,P,ugm-3,2.87059,P,ugm-3,3.24939,P,ugm-3,62.71487,P,ugm-3,2.830,P,ugm-3 (Ref.eq)
06-01-2024,11:00,7.200,P,ugm-3 (FIDAS),0.46320,P,ugm-3,2.58624,P,ugm-3,3.29648,P,ugm-3,64.91014,P,ugm-3,3.443,P,ugm-3 (Ref.eq)
06-01-2024,12:00,7.250,P,ugm-3 (FIDAS),0.46320,P,ugm-3,2.72752,P,ugm-3,3.43776,P,ugm-3,68.25294,P,ugm-3,3.679,P,ugm-3 (Ref.eq)
06-01-2024,13:00,7.125,P,ugm-3 (FIDAS),0.40144,P,ugm-3,2.58676,P,ugm-3,3.20229,P,ugm-3,70.59789,P,ugm-3,3.726,P,ugm-3 (Ref.eq)
06-01-2024,14:00,7.575,P,ugm-3 (FIDAS),0.52496,P,ugm-3,2.39736,P,ugm-3,3.20229,P,ugm-3,72.04477,P,ugm-3,3.750,P,ugm-3 (Ref.eq)
06-01-2024,15:00,7.350,P,ugm-3 (FIDAS),0.37056,P,ugm-3,2.44573,P,ugm-3,3.01392,P,ugm-3,71.69552,P,ugm-3,3.679,P,ugm-3 (Ref.eq)
06-01-2024,16:00,7.900,P,ugm-3 (FIDAS),0.49408,P,ugm-3,2.44471,P,ugm-3,3.20229,P,ugm-3,68.00348,P,ugm-3,3.892,P,ugm-3 (Ref.eq)
06-01-2024,17:00,6.475,P,ugm-3 (FIDAS),0.32939,P,ugm-3,2.82282,P,ugm-3,3.32787,P,ugm-3,66.00778,P,ugm-3,3.325,P,ugm-3 (Ref.eq)
06-01-2024,18:00,5.475,P,ugm-3 (FIDAS),0.24704,P,ugm-3,3.38861,P,ugm-3,3.76740,P,ugm-3,61.61724,P,ugm-3,3.066,P,ugm-3 (Ref.eq)
06-01-2024,19:00,5.000,P,ugm-3 (FIDAS),0.27792,P,ugm-3,3.38836,P,ugm-3,3.81450,P,ugm-3,61.36778,P,ugm-3,2.995,P,ugm-3 (Ref.eq)
06-01-2024,20:00,5.650,P,ugm-3 (FIDAS),0.30880,P,ugm-3,3.19973,P,ugm-3,3.67322,P,ugm-3,59.67143,P,ugm-3,3.090,P,ugm-3 (Ref.eq)
06-01-2024,21:00,6.875,P,ugm-3 (FIDAS),0.27792,P,ugm-3,3.01161,P,ugm-3,3.43776,P,ugm-3,58.67358,P,ugm-3,4.811,P,ugm-3 (Ref.eq)
06-01-2024,22:00,5.250,P,ugm-3 (FIDAS),0.40144,P,ugm-3,2.91640,P,ugm-3,3.53194,P,ugm-3,53.08562,P,ugm-3,3.396,P,ugm-3 (Ref.eq)
06-01-2024,23:00,6.000,P,ugm-3 (FIDAS),0.24704,P,ugm-3,2.91769,P,ugm-3,3.29648,P,ugm-3,52.13766,P,ugm-3,3.750,P,ugm-3 (Ref.eq)
06-01-2024,24:00,6.075,P,ugm-3 (FIDAS),0.27792,P,ugm-3,2.68197,P,ugm-3,3.10811,P,ugm-3,47.69723,P,ugm-3,3.774,P,ugm-3 (Ref.eq)
07-01-2024,01:00,6.150,P,ugm-3 (FIDAS),0.37096,P,ugm-3,2.57415,P,ugm-3,3.14295,P,ugm-3,47.63071,P,ugm-3,3.821,P,ugm-3 (Ref.eq)
07-01-2024,02:00,6.375,P,ugm-3 (FIDAS),,,,,,,,,,47.56418,P,ugm-3,4.175,P,ugm-3 (Ref.eq)
07-01-2024,03:00,5.625,P,ugm-3 (FIDAS),0.37096,P,ugm-3,2.73130,P,ugm-3,3.30010,P,ugm-3,44.80347,P,ugm-3,3.774,P,ugm-3 (Ref.eq)
07-01-2024,04:00,4.850,P,ugm-3 (FIDAS),0.40188,P,ugm-3,2.40103,P,ugm-3,3.01723,P,ugm-3,41.51056,P,ugm-3,3.042,P,ugm-3 (Ref.eq)
07-01-2024,05:00,4.550,P,ugm-3 (FIDAS),0.27822,P,ugm-3,2.35491,P,ugm-3,2.78151,P,ugm-3,40.41293,P,ugm-3,3.137,P,ugm-3 (Ref.eq)
07-01-2024,06:00,4.775,P,ugm-3 (FIDAS),0.21640,P,ugm-3,2.40257,P,ugm-3,2.73437,P,ugm-3,40.11357,P,ugm-3,3.137,P,ugm-3 (Ref.eq)
07-01-2024,07:00,4.325,P,ugm-3 (FIDAS),0.30914,P,ugm-3,2.26037,P,ugm-3,2.73437,P,ugm-3,40.41293,P,ugm-3,2.972,P,ugm-3 (Ref.eq)
07-01-2024,08:00,4.150,P,ugm-3 (FIDAS),0.18548,P,ugm-3,2.49711,P,ugm-3,2.78151,P,ugm-3,41.21121,P,ugm-3,2.925,P,ugm-3 (Ref.eq)
07-01-2024,09:00,4.550,P,ugm-3 (FIDAS),0.34005,P,ugm-3,2.77869,P,ugm-3,3.30010,P,ugm-3,39.86411,P,ugm-3,3.184,P,ugm-3 (Ref.eq)
07-01-2024,10:00,5.625,P,ugm-3 (FIDAS),0.49462,P,ugm-3,3.53172,P,ugm-3,4.29013,P,ugm-3,40.56260,P,ugm-3,4.363,P,ugm-3 (Ref.eq)
07-01-2024,11:00,7.075,P,ugm-3 (FIDAS),0.77284,P,ugm-3,4.56659,P,ugm-3,5.75160,P,ugm-3,51.58885,P,ugm-3,5.590,P,ugm-3 (Ref.eq)
07-01-2024,12:00,5.875,P,ugm-3 (FIDAS),0.52553,P,ugm-3,4.42721,P,ugm-3,5.23302,P,ugm-3,55.63014,P,ugm-3,4.458,P,ugm-3 (Ref.eq)
07-01-2024,13:00,3.975,P,ugm-3 (FIDAS),0.52553,P,ugm-3,4.09720,P,ugm-3,4.90301,P,ugm-3,62.31573,P,ugm-3,2.948,P,ugm-3 (Ref.eq)
07-01-2024,14:00,3.925,P,ugm-3 (FIDAS),0.83467,P,ugm-3,4.04749,P,ugm-3,5.32730,P,ugm-3,66.95574,P,ugm-3,2.783,P,ugm-3 (Ref.eq)
07-01-2024,15:00,4.425,P,ugm-3 (FIDAS),0.74193,P,ugm-3,3.90683,P,ugm-3,5.04444,P,ugm-3,69.50025,P,ugm-3,2.783,P,ugm-3 (Ref.eq)
07-01-2024,16:00,5.000,P,ugm-3 (FIDAS),0.58736,P,ugm-3,4.37955,P,ugm-3,5.28016,P,ugm-3,68.00348,P,ugm-3,3.538,P,ugm-3 (Ref.eq)
07-01-2024,17:00,5.250,P,ugm-3 (FIDAS),0.34005,P,ugm-3,4.38160,P,ugm-3,4.90301,P,ugm-3,68.10326,P,ugm-3,3.325,P,ugm-3 (Ref.eq)
07-01-2024,18:00,5.250,P,ugm-3 (FIDAS),0.30914,P,ugm-3,4.85330,P,ugm-3,5.32730,P,ugm-3,65.40907,P,ugm-3,3.349,P,ugm-3 (Ref.eq)
07-01-2024,19:00,6.250,P,ugm-3 (FIDAS),0.40188,P,ugm-3,5.04111,P,ugm-3,5.65731,P,ugm-3,65.45896,P,ugm-3,3.679,P,ugm-3 (Ref.eq)
07-01-2024,20:00,7.025,P,ugm-3 (FIDAS),0.40188,P,ugm-3,4.85253,P,ugm-3,5.46874,P,ugm-3,63.11401,P,ugm-3,4.481,P,ugm-3 (Ref.eq)
07-01-2024,21:00,6.400,P,ugm-3 (FIDAS),0.37096,P,ugm-3,4.66421,P,ugm-3,5.23302,P,ugm-3,65.50885,P,ugm-3,4.222,P,ugm-3 (Ref.eq)
07-01-2024,22:00,7.125,P,ugm-3 (FIDAS),0.37096,P,ugm-3,3.72132,P,ugm-3,4.29013,P,ugm-3,70.79746,P,ugm-3,4.080,P,ugm-3 (Ref.eq)
07-01-2024,23:00,7.175,P,ugm-3 (FIDAS),0.34005,P,ugm-3,3.48586,P,ugm-3,4.00726,P,ugm-3,71.79531,P,ugm-3,4.175,P,ugm-3 (Ref.eq)
07-01-2024,24:00,7.875,P,ugm-3 (FIDAS),0.34005,P,ugm-3,4.24017,P,ugm-3,4.76157,P,ugm-3,68.85165,P,ugm-3,4.811,P,ugm-3 (Ref.eq)
08-01-2024,01:00,7.900,P,ugm-3 (FIDAS),0.45389,P,ugm-3,4.84171,P,ugm-3,5.53767,P,ugm-3,65.99115,P,ugm-3,4.929,P,ugm-3 (Ref.eq)
08-01-2024,02:00,7.025,P,ugm-3 (FIDAS),,,,,,,,,,62.06627,P,ugm-3,4.434,P,ugm-3 (Ref.eq)
08-01-2024,03:00,7.650,P,ugm-3 (FIDAS),0.34042,P,ugm-3,3.48969,P,ugm-3,4.01166,P,ugm-3,65.55875,P,ugm-3,4.575,P,ugm-3 (Ref.eq)
08-01-2024,04:00,7.525,P,ugm-3 (FIDAS),0.40231,P,ugm-3,3.53638,P,ugm-3,4.15325,P,ugm-3,65.45896,P,ugm-3,4.528,P,ugm-3 (Ref.eq)
08-01-2024,05:00,6.850,P,ugm-3 (FIDAS),0.34042,P,ugm-3,3.58408,P,ugm-3,4.10605,P,ugm-3,66.65638,P,ugm-3,4.198,P,ugm-3 (Ref.eq)
08-01-2024,06:00,6.725,P,ugm-3 (FIDAS),0.37137,P,ugm-3,3.44224,P,ugm-3,4.01166,P,ugm-3,68.40262,P,ugm-3,3.844,P,ugm-3 (Ref.eq)
08-01-2024,07:00,6.175,P,ugm-3 (FIDAS),0.40231,P,ugm-3,3.48918,P,ugm-3,4.10605,P,ugm-3,67.85380,P,ugm-3,3.443,P,ugm-3 (Ref.eq)
08-01-2024,08:00,5.625,P,ugm-3 (FIDAS),0.43326,P,ugm-3,4.19687,P,ugm-3,4.86119,P,ugm-3,66.80606,P,ugm-3,3.019,P,ugm-3 (Ref.eq)
08-01-2024,09:00,5.425,P,ugm-3 (FIDAS),0.46421,P,ugm-3,4.43259,P,ugm-3,5.14437,P,ugm-3,63.01423,P,ugm-3,2.759,P,ugm-3 (Ref.eq)
08-01-2024,10:00,5.275,P,ugm-3 (FIDAS),0.71179,P,ugm-3,4.76091,P,ugm-3,5.85231,P,ugm-3,69.40047,P,ugm-3,2.736,P,ugm-3 (Ref.eq)
08-01-2024,11:00,4.975,P,ugm-3 (FIDAS),0.99031,P,ugm-3,6.45767,P,ugm-3,7.97613,P,ugm-3,68.95144,P,ugm-3,2.854,P,ugm-3 (Ref.eq)
08-01-2024,12:00,5.275,P,ugm-3 (FIDAS),1.26884,P,ugm-3,6.21939,P,ugm-3,8.16491,P,ugm-3,70.59789,P,ugm-3,2.925,P,ugm-3 (Ref.eq)
08-01-2024,13:00,5.275,P,ugm-3 (FIDAS),1.05221,P,ugm-3,5.23006,P,ugm-3,6.84342,P,ugm-3,73.59144,P,ugm-3,2.712,P,ugm-3 (Ref.eq)
08-01-2024,14:00,4.850,P,ugm-3 (FIDAS),0.77368,P,ugm-3,4.94919,P,ugm-3,6.13548,P,ugm-3,73.34198,P,ugm-3,2.594,P,ugm-3 (Ref.eq)
08-01-2024,15:00,5.375,P,ugm-3 (FIDAS),0.46421,P,ugm-3,4.85735,P,ugm-3,5.56913,P,ugm-3,71.59574,P,ugm-3,2.877,P,ugm-3 (Ref.eq)
08-01-2024,16:00,5.500,P,ugm-3 (FIDAS),0.43326,P,ugm-3,5.65994,P,ugm-3,6.32427,P,ugm-3,69.10111,P,ugm-3,3.231,P,ugm-3 (Ref.eq)
08-01-2024,17:00,6.675,P,ugm-3 (FIDAS),0.46421,P,ugm-3,6.65080,P,ugm-3,7.36258,P,ugm-3,65.05982,P,ugm-3,4.080,P,ugm-3 (Ref.eq)
08-01-2024,18:00,7.800,P,ugm-3 (FIDAS),0.30947,P,ugm-3,7.07685,P,ugm-3,7.55136,P,ugm-3,63.06412,P,ugm-3,4.670,P,ugm-3 (Ref.eq)
08-01-2024,19:00,9.050,P,ugm-3 (FIDAS),0.55705,P,ugm-3,7.26358,P,ugm-3,8.11771,P,ugm-3,63.61294,P,ugm-3,5.425,P,ugm-3 (Ref.eq)
08-01-2024,20:00,8.000,P,ugm-3 (FIDAS),0.46421,P,ugm-3,6.93398,P,ugm-3,7.64575,P,ugm-3,63.56305,P,ugm-3,5.354,P,ugm-3 (Ref.eq)
08-01-2024,21:00,6.500,P,ugm-3 (FIDAS),0.30947,P,ugm-3,5.70816,P,ugm-3,6.18268,P,ugm-3,64.71057,P,ugm-3,4.528,P,ugm-3 (Ref.eq)
08-01-2024,22:00,7.325,P,ugm-3 (FIDAS),0.40231,P,ugm-3,5.42422,P,ugm-3,6.04109,P,ugm-3,63.46326,P,ugm-3,5.212,P,ugm-3 (Ref.eq)
08-01-2024,23:00,8.675,P,ugm-3 (FIDAS),0.46421,P,ugm-3,5.61249,P,ugm-3,6.32427,P,ugm-3,61.51745,P,ugm-3,5.967,P,ugm-3 (Ref.eq)
08-01-2024,24:00,9.500,P,ugm-3 (FIDAS),0.40231,P,ugm-3,5.42422,P,ugm-3,6.04109,P,ugm-3,59.37208,P,ugm-3,6.604,P,ugm-3 (Ref.eq)
09-01-2024,01:00,10.675,P,ugm-3 (FIDAS),0.33046,P,ugm-3,6.10798,P,ugm-3,6.61469,P,ugm-3,55.94612,P,ugm-3,7.052,P,ugm-3 (Ref.eq)
09-01-2024,02:00,9.775,P,ugm-3 (FIDAS),,,,,,,,,,51.68863,P,ugm-3,6.604,P,ugm-3 (Ref.eq)
09-01-2024,03:00,9.625,P,ugm-3 (FIDAS),0.46471,P,ugm-3,5.00443,P,ugm-3,5.71698,P,ugm-3,50.59100,P,ugm-3,6.368,P,ugm-3 (Ref.eq)
09-01-2024,04:00,10.725,P,ugm-3 (FIDAS),0.37177,P,ugm-3,4.67446,P,ugm-3,5.24450,P,ugm-3,51.53895,P,ugm-3,6.415,P,ugm-3 (Ref.eq)
09-01-2024,05:00,12.125,P,ugm-3 (FIDAS),0.34079,P,ugm-3,4.91096,P,ugm-3,5.43349,P,ugm-3,49.44347,P,ugm-3,6.981,P,ugm-3 (Ref.eq)
09-01-2024,06:00,12.250,P,ugm-3 (FIDAS),0.43373,P,ugm-3,5.52441,P,ugm-3,6.18946,P,ugm-3,52.03788,P,ugm-3,7.925,P,ugm-3 (Ref.eq)
09-01-2024,07:00,11.650,P,ugm-3 (FIDAS),0.40275,P,ugm-3,5.14669,P,ugm-3,5.76423,P,ugm-3,52.93594,P,ugm-3,7.594,P,ugm-3 (Ref.eq)
09-01-2024,08:00,12.425,P,ugm-3 (FIDAS),0.34079,P,ugm-3,5.19444,P,ugm-3,5.71698,P,ugm-3,52.53680,P,ugm-3,7.429,P,ugm-3 (Ref.eq)